Regional Weather Roundup
Issued by NWS Charleston, SC

Current Version | Previous Version | Graphics & Text | Print | Product List | Glossary On
Versions: 1 2 3 4 5 6 7 8 9 10 11 12 13 14 15 16 17 18 19 20 21 22 23 24 25 26 27 28 29 30 31 32 33 34 35 36 37 38 39 40 41 42 43 44 45 46 47 48 49 50
000
ASUS42 KCHS 281825
RWRCHS

REGIONAL WEATHER ROUNDUP
NATIONAL WEATHER SERVICE CHARLESTON SC
100 PM EST SUN DEC 28 2014

NOTE: "FAIR" INDICATES FEW OR NO CLOUDS BELOW 12,000 FEET WITH NO
SIGNIFICANT WEATHER AND/OR OBSTRUCTIONS TO VISIBILITY.

NOT ALL STATIONS ARE QUALITY CONTROLLED BY THE NATIONAL
WEATHER SERVICE. USE DATA WITH CAUTION...ESPECIALLY
DEWPOINT OBSERVATIONS.

SCZ027-030-031-034>040-042>050-281900-
...SOUTHEAST SOUTH CAROLINA...

CITY           SKY/WX    TMP DP  RH WIND       PRES   REMARKS
N CHARLESTON   PTSUNNY   73  64  73 SW9       30.05F
6HR MIN TEMP:  51; 6HR MAX TEMP:  76;

WATERFRONT PRK   N/A     70 N/A N/A SW9         N/A
MOUNT PLEASANT NOT AVBL
PINOPOLIS      NOT AVBL
MONCKS CORNER  NOT AVBL
SUMMERVILLE    NOT AVBL
BEAUFORT MCAS  MOSUNNY   72  63  73 CALM      30.06F
6HR MIN TEMP:  52; 6HR MAX TEMP:  72;

BEAUFORT ARPT  NOT AVBL
HILTON HEAD IS SUNNY     73  66  78 S8        30.09F
WALTERBORO     NOT AVBL
ALLENDALE      NOT AVBL

...SOUTHERN MIDLANDS AND PEE DEE...

CITY           SKY/WX    TMP DP  RH WIND       PRES   REMARKS
GEORGETOWN     NOT AVBL
KINGSTREE      NOT AVBL
ORANGEBURG     CLOUDY    69  60  73 S10       30.04F
6HR MIN TEMP:  55; 6HR MAX TEMP:  69;

BARNWELL       NOT AVBL
AIKEN          NOT AVBL
MANNING        NOT AVBL
COLUMBIA       CLOUDY    63  63 100 SW5       30.03F
6HR MIN TEMP:  53; 6HR MAX TEMP:  64; 6HR PCP:  0.12;

SUMTER         CLOUDY    70  60  71 SW13      30.01F
6HR MIN TEMP:  55; 6HR MAX TEMP:  73; 6HR PCP: TRACE;

FLORENCE       PTSUNNY   76  59  55 SW14      30.02F
6HR MIN TEMP:  55; 6HR MAX TEMP:  76;

MYRTLE BEACH   PTSUNNY   72  57  60 S13       30.07F
N MYRTLE BEACH MOSUNNY   65  55  70 S9        30.05F
6HR MIN TEMP:  50; 6HR MAX TEMP:  67;


$$

GAZ063-065-086>088-099>101-113>116-118-119-134>141-150-281900-
...SOUTHEAST GEORGIA...

CITY           SKY/WX    TMP DP  RH WIND       PRES   REMARKS
SAVANNAH ARPT  PTSUNNY   76  63  64 SW8       30.07F
6HR MIN TEMP:  51; 6HR MAX TEMP:  77;

HUNTER AAF     MOSUNNY   79  66  65 SW8G18    30.04F
6HR MIN TEMP:  50; 6HR MAX TEMP:  79;

FORT STEWART   SUNNY     77  64  64 SW9G20    30.05F
6HR MIN TEMP:  50; 6HR MAX TEMP:  77; 6HR PCP: TRACE;

STATESBORO     MOSUNNY   75  65  72 W9        30.05F
SYLVANIA       PTCLDY    74  65  74 SW5       30.06F
CLAXTON        FAIR      73  64  73 W7        30.05F

...CSRA...CENTRAL AND FAR SOUTHEAST GEORGIA...

CITY           SKY/WX    TMP DP  RH WIND       PRES   REMARKS
THOMSON        CLOUDY    63  63 100 S5        30.09F
AUGUSTA-BUSH   CLOUDY    64  59  83 SW5       30.05F
6HR MIN TEMP:  52; 6HR MAX TEMP:  64;

AUGUSTA-DANIEL CLOUDY    62  60  93 S5        30.06F
SWAINSBORO     FAIR      77  66  69 W8G16     30.06F
VIDALIA        MOSUNNY   77  63  61 SW12      30.06F
EASTMAN        MOCLDY    77  65  67 W9G18     30.08F
HAZLEHURST     FAIR      78  66  66 SW7       30.05F
ALMA           SUNNY     79  62  56 SW15G23   30.06F
6HR MIN TEMP:  53; 6HR MAX TEMP:  79;

WAYCROSS       SUNNY     82  68  63 SW14G21   30.06F
JESUP          FAIR      79  68  69 W10G17    30.06F
BAXLEY         FAIR      79  64  61 W7        30.05F
BRUNSWICK      SUNNY     79  63  57 SW13      30.07F
SAINT SIMONS   SUNNY     75  64  68 SW9       30.08F
6HR MIN TEMP:  54; 6HR MAX TEMP:  76;


$$

SCZ027-028-034-036>038-045-046-048>050-GAZ119-141-281900-
...LAKE AND SUPPLEMENTAL COASTAL OBSERVATIONS...

STATION/POSITION TIME  TEMP    WIND        PRES    WAVE   SWELL
                       AIR SEA DIR/SP/G            HT/PER HT/PER/DIR
                 (UTC) (F)     (DEG/KT/KT) (MB)    (FT/S) (FT/S/D)
UPR LAKE MARION  NOT AVBL
WINYAH BAY       1800   73     230/ 11     1017.0S
LAKE MURRAY      1700   57     210/  3/  4 1017.6F
ACE BASIN NERRS  1800   71     180/  1     1018.0F
FORT PULASKI     1800   69 56  190/  5/  8 1018.5F
SAPELO ISLAND    1800   74     220/ 11     1018.0F

$$

ANZ835-935-AMZ111-154-330-350-352-354-370-450-454-472-281900-
...C-MAN AND BUOY OBSERVATIONS...

STATION/POSITION TIME  TEMP    WIND        PRES    WAVE   SWELL
                       AIR SEA DIR/SP/G            HT/PER HT/PER/DIR
                 (UTC) (F)     (DEG/KT/KT) (MB)    (FT/S) (FT/S/D)
BUOY 41004       1800   73 74  220/ 12/ 14 1018.0F   3/12   2/12
BUOY 41008       1800   61 59  210/ 10/ 10 1018.5F   3/15   3/110/15
FOLLY BEACH CMAN 1800   62     200/  5/  5 1018.7F
CAPERS NEARSHORE 1700   63     210/  4/  6   N/A
FRIPP NEARSHORE  NOT AVBL


STATION/POSITION TIME  TEMP    WIND        PRES    WAVE   SWELL
                       AIR SEA DIR/SP/G            HT/PER HT/PER/DIR
                 (UTC) (F)     (DEG/KT/KT) (MB)    (FT/S) (FT/S/D)
5E ST. MARYS GA  1800      62                N/A     3/15   2/110/15
FRYING PAN BUOY  1800   68 68  240/  8/  8 1018.9F   3/14   3/120/14
BUOY 41025       1800   70                 1016.8F   5/14
CAPE LOOKOUT NC  1800   64     260/  8/ 10 1017.2F
BUOY 41002       1738   73 75  210/ 19/ 21 1019.9F   5/14   3/ 80/14
BUOY 41010       1800   77 77  220/ 12/ 14 1020.0F   5/14   5/ 80/14
ST AUGUSTINE FL  1800   65     150/  8/  8 1019.8F


$$



USA.gov is the U.S. government's official web portal to all federal, state and local government web resources and services.